Time,TemperatureF,DewpointF,PressureIn,WindDirection,WindDirectionDegrees,WindSpeedMPH,WindSpeedGustMPH,Humidity,HourlyPrecipIn,Conditions,Clouds,dailyrainin,SoftwareType,DateUTC
2013-01-09 00:02:00,21.0,18.0,-100.00,SSW,213,3.0,5.0,89,-99.99,,,-99.99,,2013-01-09 09:02:00,
2013-01-09 00:12:00,21.0,18.0,-100.00,SSW,213,3.0,5.0,89,-99.99,,,-99.99,,2013-01-09 09:12:00,
2013-01-09 00:22:00,22.0,19.0,-100.00,SSW,208,3.0,6.0,88,-99.99,,,-99.99,,2013-01-09 09:22:00,
2013-01-09 00:32:00,22.0,19.0,-100.00,SSW,205,4.0,8.0,88,-99.99,,,-99.99,,2013-01-09 09:32:00,
2013-01-09 00:42:00,22.0,19.0,-100.00,SSW,205,4.0,8.0,88,-99.99,,,-99.99,,2013-01-09 09:42:00,
2013-01-09 00:53:00,22.0,19.0,-100.00,SSW,201,4.0,7.0,88,-99.99,,,-99.99,,2013-01-09 09:53:00,
2013-01-09 01:02:00,22.0,19.0,-100.00,SSW,201,4.0,7.0,88,-99.99,,,-99.99,,2013-01-09 10:02:00,
2013-01-09 01:11:00,22.0,19.0,-100.00,SSW,201,4.0,7.0,88,-99.99,,,-99.99,,2013-01-09 10:11:00,
2013-01-09 01:22:00,21.0,17.0,-100.00,SSE,147,2.0,4.0,86,-99.99,,,-99.99,,2013-01-09 10:22:00,
2013-01-09 01:32:00,21.0,17.0,-100.00,SE,124,2.0,4.0,85,-99.99,,,-99.99,,2013-01-09 10:32:00,
2013-01-09 01:42:00,21.0,17.0,-100.00,SE,124,2.0,4.0,85,-99.99,,,-99.99,,2013-01-09 10:42:00,
2013-01-09 01:52:00,21.0,16.0,-100.00,South,186,3.0,6.0,80,-99.99,,,-99.99,,2013-01-09 10:52:00,
2013-01-09 02:02:00,21.0,16.0,-100.00,SSE,159,3.0,6.0,79,-99.99,,,-99.99,,2013-01-09 11:02:00,
2013-01-09 02:12:00,21.0,16.0,-100.00,SSE,159,3.0,6.0,79,-99.99,,,-99.99,,2013-01-09 11:12:00,
2013-01-09 02:22:00,21.0,15.0,-100.00,South,185,5.0,9.0,77,-99.99,,,-99.99,,2013-01-09 11:22:00,
2013-01-09 02:32:00,21.0,16.0,-100.00,South,189,4.0,8.0,80,-99.99,,,-99.99,,2013-01-09 11:32:00,
2013-01-09 02:42:00,21.0,16.0,-100.00,South,189,4.0,8.0,80,-99.99,,,-99.99,,2013-01-09 11:42:00,
2013-01-09 02:52:00,21.0,17.0,-100.00,SW,217,5.0,8.0,84,-99.99,,,-99.99,,2013-01-09 11:52:00,
2013-01-09 03:03:00,21.0,16.0,-100.00,SSW,210,6.0,10.0,82,-99.99,,,-99.99,,2013-01-09 12:03:00,
2013-01-09 03:12:00,21.0,16.0,-100.00,SSW,210,6.0,10.0,82,-99.99,,,-99.99,,2013-01-09 12:12:00,
2013-01-09 03:22:00,21.0,18.0,-100.00,South,189,4.0,9.0,87,-99.99,,,-99.99,,2013-01-09 12:22:00,
2013-01-09 03:33:00,21.0,18.0,-100.00,South,191,5.0,8.0,89,-99.99,,,-99.99,,2013-01-09 12:33:00,
2013-01-09 03:42:00,21.0,18.0,-100.00,South,191,5.0,8.0,89,-99.99,,,-99.99,,2013-01-09 12:42:00,
2013-01-09 03:52:00,21.0,18.0,-100.00,South,191,5.0,8.0,89,-99.99,,,-99.99,,2013-01-09 12:52:00,
2013-01-09 04:02:00,21.0,17.0,-100.00,South,170,1.0,5.0,86,-99.99,,,-99.99,,2013-01-09 13:02:00,
2013-01-09 04:12:00,21.0,17.0,-100.00,South,170,1.0,5.0,86,-99.99,,,-99.99,,2013-01-09 13:12:00,
2013-01-09 04:22:00,21.0,17.0,-100.00,SSE,151,0.0,4.0,85,-99.99,,,-99.99,,2013-01-09 13:22:00,
2013-01-09 04:32:00,21.0,17.0,-100.00,SSE,163,2.0,3.0,85,-99.99,,,-99.99,,2013-01-09 13:32:00,
2013-01-09 04:42:00,21.0,17.0,-100.00,SSE,163,2.0,3.0,85,-99.99,,,-99.99,,2013-01-09 13:42:00,
2013-01-09 04:52:00,21.0,17.0,-100.00,SSE,163,2.0,3.0,85,-99.99,,,-99.99,,2013-01-09 13:52:00,
2013-01-09 05:02:00,21.0,16.0,-100.00,SSW,195,1.0,3.0,81,-99.99,,,-99.99,,2013-01-09 14:02:00,
2013-01-09 05:12:00,21.0,16.0,-100.00,SSW,195,1.0,3.0,81,-99.99,,,-99.99,,2013-01-09 14:12:00,
2013-01-09 05:22:00,21.0,16.0,-100.00,SW,230,3.0,6.0,82,-99.99,,,-99.99,,2013-01-09 14:22:00,
2013-01-09 05:33:00,19.0,16.0,-100.00,SW,228,1.0,4.0,87,-99.99,,,-99.99,,2013-01-09 14:33:00,
2013-01-09 05:43:00,19.0,16.0,-100.00,SW,228,1.0,4.0,87,-99.99,,,-99.99,,2013-01-09 14:43:00,
2013-01-09 05:52:00,19.0,17.0,-100.00,South,172,0.0,2.0,90,-99.99,,,-99.99,,2013-01-09 14:52:00,
2013-01-09 06:03:00,20.0,17.0,-100.00,SE,136,0.0,0.0,89,-99.99,,,-99.99,,2013-01-09 15:03:00,
2013-01-09 06:12:00,20.0,17.0,-100.00,SE,136,0.0,0.0,89,-99.99,,,-99.99,,2013-01-09 15:12:00,
2013-01-09 06:22:00,20.0,17.0,-100.00,SSE,153,0.0,3.0,88,-99.99,,,-99.99,,2013-01-09 15:22:00,
2013-01-09 06:33:00,21.0,17.0,-100.00,South,184,0.0,2.0,84,-99.99,,,-99.99,,2013-01-09 15:33:00,
2013-01-09 06:42:00,21.0,17.0,-100.00,South,184,0.0,2.0,84,-99.99,,,-99.99,,2013-01-09 15:42:00,
2013-01-09 06:52:00,20.0,17.0,-100.00,SSW,204,0.0,2.0,87,-99.99,,,-99.99,,2013-01-09 15:52:00,
2013-01-09 07:03:00,20.0,17.0,-100.00,SSW,204,0.0,2.0,87,-99.99,,,-99.99,,2013-01-09 16:03:00,
2013-01-09 07:12:00,20.0,17.0,-100.00,SSW,204,0.0,2.0,87,-99.99,,,-99.99,,2013-01-09 16:12:00,
2013-01-09 07:22:00,20.0,16.0,-100.00,WSW,239,0.0,2.0,85,-99.99,,,-99.99,,2013-01-09 16:22:00,
2013-01-09 07:33:00,20.0,17.0,-100.00,ESE,122,1.0,3.0,87,-99.99,,,-99.99,,2013-01-09 16:33:00,
2013-01-09 07:42:00,20.0,17.0,-100.00,ESE,122,1.0,3.0,87,-99.99,,,-99.99,,2013-01-09 16:42:00,
2013-01-09 07:52:00,21.0,17.0,-100.00,West,272,0.0,2.0,84,-99.99,,,-99.99,,2013-01-09 16:52:00,
2013-01-09 08:02:00,19.0,16.0,-100.00,SE,127,0.0,1.0,86,-99.99,,,-99.99,,2013-01-09 17:02:00,
2013-01-09 08:12:00,19.0,16.0,-100.00,SE,127,0.0,1.0,86,-99.99,,,-99.99,,2013-01-09 17:12:00,
2013-01-09 08:22:00,20.0,16.0,-100.00,SSE,162,1.0,2.0,83,-99.99,,,-99.99,,2013-01-09 17:22:00,
2013-01-09 08:32:00,20.0,15.0,-100.00,SE,135,0.0,2.0,82,-99.99,,,-99.99,,2013-01-09 17:32:00,
2013-01-09 08:43:00,20.0,15.0,-100.00,SE,135,0.0,2.0,82,-99.99,,,-99.99,,2013-01-09 17:43:00,
2013-01-09 08:52:00,20.0,14.0,-100.00,SSE,153,1.0,5.0,78,-99.99,,,-99.99,,2013-01-09 17:52:00,
2013-01-09 09:03:00,20.0,15.0,-100.00,SW,227,2.0,3.0,81,-99.99,,,-99.99,,2013-01-09 18:03:00,
2013-01-09 09:12:00,20.0,15.0,-100.00,SW,227,2.0,3.0,81,-99.99,,,-99.99,,2013-01-09 18:12:00,
2013-01-09 09:23:00,19.0,15.0,-100.00,SE,135,1.0,3.0,85,-99.99,,,-99.99,,2013-01-09 18:23:00,
2013-01-09 09:33:00,19.0,17.0,-100.00,South,178,1.0,2.0,90,-99.99,,,-99.99,,2013-01-09 18:33:00,
2013-01-09 09:43:00,19.0,17.0,-100.00,South,178,1.0,2.0,90,-99.99,,,-99.99,,2013-01-09 18:43:00,
2013-01-09 09:52:00,19.0,16.0,-100.00,SE,135,1.0,3.0,88,-99.99,,,-99.99,,2013-01-09 18:52:00,
2013-01-09 10:02:00,20.0,15.0,-100.00,SSE,153,2.0,6.0,79,-99.99,,,-99.99,,2013-01-09 19:02:00,
2013-01-09 10:12:00,20.0,15.0,-100.00,SSE,153,2.0,6.0,79,-99.99,,,-99.99,,2013-01-09 19:12:00,
2013-01-09 10:22:00,20.0,16.0,-100.00,ESE,110,0.0,2.0,84,-99.99,,,-99.99,,2013-01-09 19:22:00,
2013-01-09 10:33:00,20.0,16.0,-100.00,SSW,212,1.0,3.0,83,-99.99,,,-99.99,,2013-01-09 19:33:00,
2013-01-09 10:43:00,20.0,16.0,-100.00,SSW,212,1.0,3.0,83,-99.99,,,-99.99,,2013-01-09 19:43:00,
2013-01-09 10:52:00,19.0,14.0,-100.00,South,169,2.0,4.0,82,-99.99,,,-99.99,,2013-01-09 19:52:00,
2013-01-09 11:02:00,19.0,15.0,-100.00,SSE,162,0.0,3.0,83,-99.99,,,-99.99,,2013-01-09 20:02:00,
2013-01-09 11:12:00,19.0,15.0,-100.00,SSE,162,0.0,3.0,83,-99.99,,,-99.99,,2013-01-09 20:12:00,
2013-01-09 11:22:00,19.0,15.0,-100.00,East,98,0.0,2.0,83,-99.99,,,-99.99,,2013-01-09 20:22:00,
2013-01-09 11:33:00,19.0,15.0,-100.00,East,98,0.0,2.0,83,-99.99,,,-99.99,,2013-01-09 20:33:00,
2013-01-09 11:42:00,19.0,15.0,-100.00,East,98,0.0,2.0,83,-99.99,,,-99.99,,2013-01-09 20:42:00,
2013-01-09 11:52:00,20.0,15.0,-100.00,ESE,102,1.0,3.0,81,-99.99,,,-99.99,,2013-01-09 20:52:00,
2013-01-09 12:03:00,21.0,13.0,-100.00,South,191,1.0,5.0,71,-99.99,,,-99.99,,2013-01-09 21:03:00,
2013-01-09 12:12:00,21.0,13.0,-100.00,South,191,1.0,5.0,71,-99.99,,,-99.99,,2013-01-09 21:12:00,
2013-01-09 12:22:00,22.0,16.0,-100.00,SSW,194,1.0,2.0,77,-99.99,,,-99.99,,2013-01-09 21:22:00,
2013-01-09 12:33:00,24.0,14.0,-100.00,ESE,102,1.0,2.0,65,-99.99,,,-99.99,,2013-01-09 21:33:00,
2013-01-09 12:42:00,24.0,14.0,-100.00,ESE,102,1.0,2.0,65,-99.99,,,-99.99,,2013-01-09 21:42:00,
2013-01-09 12:52:00,24.0,15.0,-100.00,ENE,59,0.0,4.0,67,-99.99,,,-99.99,,2013-01-09 21:52:00,
2013-01-09 13:03:00,26.0,16.0,-100.00,South,191,0.0,0.0,64,-99.99,,,-99.99,,2013-01-09 22:03:00,
2013-01-09 13:12:00,26.0,16.0,-100.00,South,191,0.0,0.0,64,-99.99,,,-99.99,,2013-01-09 22:12:00,
2013-01-09 13:22:00,24.0,16.0,-100.00,SW,219,2.0,3.0,71,-99.99,,,-99.99,,2013-01-09 22:22:00,
2013-01-09 13:32:00,24.0,16.0,-100.00,SW,219,2.0,3.0,71,-99.99,,,-99.99,,2013-01-09 22:32:00,
2013-01-09 13:42:00,24.0,16.0,-100.00,SW,219,2.0,3.0,71,-99.99,,,-99.99,,2013-01-09 22:42:00,
2013-01-09 13:52:00,22.0,12.0,-100.00,South,171,0.0,2.0,65,-99.99,,,-99.99,,2013-01-09 22:52:00,
2013-01-09 14:02:00,21.0,12.0,-100.00,ENE,70,3.0,5.0,69,-99.99,,,-99.99,,2013-01-09 23:02:00,
2013-01-09 14:12:00,21.0,12.0,-100.00,ENE,70,3.0,5.0,69,-99.99,,,-99.99,,2013-01-09 23:12:00,
2013-01-09 14:22:00,21.0,12.0,-100.00,ESE,114,2.0,5.0,68,-99.99,,,-99.99,,2013-01-09 23:22:00,
2013-01-09 14:32:00,21.0,12.0,-100.00,ESE,123,2.0,3.0,68,-99.99,,,-99.99,,2013-01-09 23:32:00,
2013-01-09 14:42:00,21.0,12.0,-100.00,ESE,123,2.0,3.0,68,-99.99,,,-99.99,,2013-01-09 23:42:00,
2013-01-09 14:52:00,21.0,12.0,-100.00,West,277,0.0,2.0,67,-99.99,,,-99.99,,2013-01-09 23:52:00,
2013-01-09 15:02:00,21.0,13.0,-100.00,NE,51,0.0,2.0,70,-99.99,,,-99.99,,2013-01-10 00:02:00,
2013-01-09 15:12:00,21.0,13.0,-100.00,NE,51,0.0,2.0,70,-99.99,,,-99.99,,2013-01-10 00:12:00,
2013-01-09 15:22:00,21.0,13.0,-100.00,NE,49,3.0,5.0,71,-99.99,,,-99.99,,2013-01-10 00:22:00,
2013-01-09 15:32:00,20.0,11.0,-100.00,NE,54,3.0,6.0,68,-99.99,,,-99.99,,2013-01-10 00:32:00,
2013-01-09 15:42:00,20.0,11.0,-100.00,NE,54,3.0,6.0,68,-99.99,,,-99.99,,2013-01-10 00:42:00,
2013-01-09 15:52:00,20.0,12.0,-100.00,NE,49,3.0,5.0,70,-99.99,,,-99.99,,2013-01-10 00:52:00,
2013-01-09 16:02:00,20.0,12.0,-100.00,NE,49,3.0,5.0,70,-99.99,,,-99.99,,2013-01-10 01:02:00,
2013-01-09 16:12:00,20.0,12.0,-100.00,NE,49,3.0,5.0,70,-99.99,,,-99.99,,2013-01-10 01:12:00,
2013-01-09 16:22:00,22.0,10.0,-100.00,North,6,1.0,6.0,59,-99.99,,,-99.99,,2013-01-10 01:22:00,
2013-01-09 16:32:00,24.0,6.0,-100.00,East,97,1.0,9.0,46,-99.99,,,-99.99,,2013-01-10 01:32:00,
2013-01-09 16:52:00,23.0,12.0,-100.00,SSW,209,3.0,4.0,61,-99.99,,,-99.99,,2013-01-10 01:52:00,
2013-01-09 17:02:00,23.0,8.0,-100.00,SSE,155,2.0,8.0,52,-99.99,,,-99.99,,2013-01-10 02:02:00,
2013-01-09 17:12:00,23.0,8.0,-100.00,SSE,155,2.0,8.0,52,-99.99,,,-99.99,,2013-01-10 02:12:00,
2013-01-09 17:22:00,22.0,12.0,-100.00,South,176,3.0,8.0,65,-99.99,,,-99.99,,2013-01-10 02:22:00,
2013-01-09 17:32:00,21.0,13.0,-100.00,NE,55,0.0,6.0,72,-99.99,,,-99.99,,2013-01-10 02:32:00,
2013-01-09 17:42:00,21.0,13.0,-100.00,NE,55,0.0,6.0,72,-99.99,,,-99.99,,2013-01-10 02:42:00,
2013-01-09 17:52:00,21.0,13.0,-100.00,NE,55,0.0,6.0,72,-99.99,,,-99.99,,2013-01-10 02:52:00,
2013-01-09 18:02:00,24.0,9.0,-100.00,SE,139,6.0,18.0,52,-99.99,,,-99.99,,2013-01-10 03:02:00,
2013-01-09 18:12:00,24.0,9.0,-100.00,SE,139,6.0,18.0,52,-99.99,,,-99.99,,2013-01-10 03:12:00,
2013-01-09 18:22:00,26.0,10.0,-100.00,North,0,1.0,18.0,51,-99.99,,,-99.99,,2013-01-10 03:22:00,
2013-01-09 18:32:00,25.0,9.0,-100.00,SSE,153,5.0,10.0,50,-99.99,,,-99.99,,2013-01-10 03:32:00,
2013-01-09 18:42:00,25.0,9.0,-100.00,SSE,153,5.0,10.0,50,-99.99,,,-99.99,,2013-01-10 03:42:00,
2013-01-09 18:52:00,28.0,6.0,-100.00,SE,126,7.0,19.0,39,-99.99,,,-99.99,,2013-01-10 03:52:00,
2013-01-09 19:02:00,26.0,8.0,-100.00,SE,134,1.0,6.0,45,-99.99,,,-99.99,,2013-01-10 04:02:00,
2013-01-09 19:12:00,26.0,8.0,-100.00,SE,134,1.0,6.0,45,-99.99,,,-99.99,,2013-01-10 04:12:00,
2013-01-09 19:22:00,26.0,7.0,-100.00,SSW,205,1.0,7.0,43,-99.99,,,-99.99,,2013-01-10 04:22:00,
2013-01-09 19:32:00,27.0,9.0,-100.00,South,184,2.0,12.0,45,-99.99,,,-99.99,,2013-01-10 04:32:00,
2013-01-09 19:42:00,27.0,9.0,-100.00,South,184,2.0,12.0,45,-99.99,,,-99.99,,2013-01-10 04:42:00,
2013-01-09 19:52:00,26.0,6.0,-100.00,SE,141,8.0,21.0,42,-99.99,,,-99.99,,2013-01-10 04:52:00,
2013-01-09 20:03:00,28.0,7.0,-100.00,ESE,118,10.0,21.0,40,-99.99,,,-99.99,,2013-01-10 05:03:00,
2013-01-09 20:22:00,28.0,6.0,-100.00,SE,146,8.0,25.0,39,-99.99,,,-99.99,,2013-01-10 05:22:00,
2013-01-09 20:32:00,28.0,6.0,-100.00,SE,139,11.0,26.0,39,-99.99,,,-99.99,,2013-01-10 05:32:00,
2013-01-09 20:42:00,28.0,6.0,-100.00,SE,139,11.0,26.0,39,-99.99,,,-99.99,,2013-01-10 05:42:00,
2013-01-09 20:52:00,28.0,7.0,-100.00,SE,145,11.0,26.0,41,-99.99,,,-99.99,,2013-01-10 05:52:00,
2013-01-09 21:02:00,28.0,8.0,-100.00,SE,137,12.0,29.0,42,-99.99,,,-99.99,,2013-01-10 06:02:00,
2013-01-09 21:11:00,28.0,8.0,-100.00,SE,137,12.0,29.0,42,-99.99,,,-99.99,,2013-01-10 06:11:00,
2013-01-09 21:22:00,28.0,10.0,-100.00,ESE,122,14.0,31.0,46,-99.99,,,-99.99,,2013-01-10 06:22:00,
2013-01-09 21:32:00,27.0,9.0,-100.00,SE,130,11.0,27.0,47,-99.99,,,-99.99,,2013-01-10 06:32:00,
2013-01-09 21:42:00,27.0,9.0,-100.00,SE,130,11.0,27.0,47,-99.99,,,-99.99,,2013-01-10 06:42:00,
2013-01-09 21:52:00,27.0,9.0,-100.00,ESE,118,14.0,28.0,46,-99.99,,,-99.99,,2013-01-10 06:52:00,
2013-01-09 22:02:00,27.0,10.0,-100.00,ESE,111,12.0,27.0,48,-99.99,,,-99.99,,2013-01-10 07:02:00,
2013-01-09 22:11:00,27.0,10.0,-100.00,ESE,111,12.0,27.0,48,-99.99,,,-99.99,,2013-01-10 07:11:00,
2013-01-09 22:22:00,27.0,11.0,-100.00,ESE,118,10.0,21.0,50,-99.99,,,-99.99,,2013-01-10 07:22:00,
2013-01-09 22:32:00,27.0,10.0,-100.00,SE,132,12.0,25.0,48,-99.99,,,-99.99,,2013-01-10 07:32:00,
2013-01-09 22:42:00,27.0,10.0,-100.00,SE,132,12.0,25.0,48,-99.99,,,-99.99,,2013-01-10 07:42:00,
2013-01-09 22:52:00,27.0,9.0,-100.00,ESE,121,12.0,26.0,47,-99.99,,,-99.99,,2013-01-10 07:52:00,
2013-01-09 23:01:00,27.0,10.0,-100.00,SE,135,13.0,29.0,49,-99.99,,,-99.99,,2013-01-10 08:01:00,
2013-01-09 23:11:00,27.0,10.0,-100.00,SE,135,13.0,29.0,49,-99.99,,,-99.99,,2013-01-10 08:11:00,
2013-01-09 23:22:00,28.0,11.0,-100.00,SE,124,15.0,31.0,48,-99.99,,,-99.99,,2013-01-10 08:22:00,
2013-01-09 23:32:00,27.0,13.0,-100.00,SE,129,13.0,31.0,54,-99.99,,,-99.99,,2013-01-10 08:32:00,
2013-01-09 23:42:00,27.0,13.0,-100.00,SE,129,13.0,31.0,54,-99.99,,,-99.99,,2013-01-10 08:42:00,
2013-01-09 23:52:00,25.0,17.0,-100.00,ESE,113,14.0,31.0,71,-99.99,,,-99.99,,2013-01-10 08:52:00,